PIC6150 VVTS-VVCR

Flight info

Callsign PIC6150
Flight time N/A
Altitude 23000
Route BIXEX5C W15 BANKE BANKE1A
Aircraft A321/M-SDE3FGHIRWY/LB1

Departure

Time 2026-05-07 14:38
Airport Tan Son Nhat International Airport (VVTS)

Arrival

Time N/A
Airport Cam Ranh International Airport / Cam Ranh Air Base (VVCR)
Time Latitude Longitude Altitude Speed Heading
2026-05-07 13:49 10.81397 106.65310 48 ft 0 kts 340°
2026-05-07 14:31 10.81400 106.65309 48 ft 2 kts 340°
2026-05-07 14:31 10.81427 106.65301 48 ft 6 kts 352°
2026-05-07 14:31 10.81470 106.65333 48 ft 10 kts 64°
2026-05-07 14:31 10.81503 106.65416 48 ft 15 kts 69°
2026-05-07 14:32 10.81545 106.65527 48 ft 19 kts 69°
2026-05-07 14:32 10.81596 106.65667 48 ft 23 kts 69°
2026-05-07 14:32 10.81659 106.65833 48 ft 27 kts 69°
2026-05-07 14:32 10.81733 106.66028 48 ft 32 kts 69°
2026-05-07 14:33 10.81813 106.66240 48 ft 33 kts 69°
2026-05-07 14:33 10.81867 106.66385 48 ft 33 kts 69°
2026-05-07 14:33 10.81948 106.66601 48 ft 33 kts 69°
2026-05-07 14:33 10.82030 106.66816 48 ft 33 kts 69°
2026-05-07 14:34 10.82240 106.67007 48 ft 22 kts 358°
2026-05-07 14:34 10.82267 106.67002 48 ft 0 kts 334°
2026-05-07 14:34 10.82278 106.66996 48 ft 4 kts 330°
2026-05-07 14:35 10.82310 106.66969 48 ft 8 kts 309°
2026-05-07 14:35 10.82337 106.66902 48 ft 12 kts 278°
2026-05-07 14:35 10.82330 106.66847 48 ft 0 kts 251°
2026-05-07 14:36 10.82330 106.66846 48 ft 0 kts 251°
2026-05-07 14:37 10.82261 106.66662 48 ft 87 kts 249°
2026-05-07 14:37 10.81890 106.65684 86 ft 205 kts 249°
2026-05-07 14:38 10.81297 106.64121 571 ft 267 kts 249°
2026-05-07 14:38 10.80530 106.62091 797 ft 347 kts 249°
2026-05-07 14:38 10.80247 106.59561 1893 ft 366 kts 283°
2026-05-07 14:38 10.81640 106.57514 4460 ft 354 kts 326°
2026-05-07 14:39 10.83985 106.57412 6413 ft 371 kts 21°
2026-05-07 14:39 10.85516 106.59661 5978 ft 443 kts 85°